Location: Banska Bystrica
(48.7330°N, 19.1500°E)
Time: 08:26:47
(UTC+02:00)

ISS - Pass Details

Date: 24 March 2019
Orbit: 408 x 410 km, 51.6° (Epoch: 22 April)

Event Time Altitude Azimuth Distance (km) Brightness Sun altitude
Rises 19:28:00 0° 240° (WSW) 2,329 0.6 -14.7°
Reaches altitude 10° 19:30:05 10° 238° (WSW) 1,470 -0.5 -15.0°
Maximum altitude 19:33:22 69° 155° (SSE) 440 -3.9 -15.6°
Enters shadow 19:34:34 35° 81° (E) 676 -3.2 -15.7°
